Location: Putah Creek Observatory
(38.7021°N, 122.3865°W)
Time: 14:59:55
(UTC-07:00)

USA 234 - Pass Details

Date: 27 May 2018
Orbit: 1102 x 1105 km, 123.0° (Epoch: 03 July)

Event Time Altitude Azimuth Distance (km) Brightness Sun altitude
Rises 22:39:23 0° 42° (NE) 3,927 6.3 -20.6°
Reaches altitude 10° 22:41:56 10° 37° (NE) 2,968 5.7 -20.9°
Maximum altitude 22:48:12 50° 325° (NW) 1,380 4.1 -21.6°
Drops below altitude 10° 22:54:27 10° 252° (WSW) 2,960 5.7 -22.3°
Sets 22:57:00 0° 247° (WSW) 3,916 6.3 -22.6°
